Flag for Romania Weather past 2 weeks in Sibiu, Romania

Now
50 °F

Clear.


Feels Like: 50 °F
Forecast: 46 / 70 °F
Wind: 2 mph from Northwest

Location: Sibiu Airport

Current Time: Oct 21, 2014 at 3:46:45 AM

Latest Report: Oct 21, 2014 at 3:00 AM


Visibility: 10 mi

Pressure: 29.98 "Hg

Humidity: 94%

Dew point: 48 °F

Location of SibiuLocation

Historic Weather in Sibiu — Graph

°F

Sibiu temperature yesterday

Maximum temperature yesterday: 68 °F (at 4:00 PM)
Minimum temperature yesterday: 34 °F (at 5:30 AM)
Average temperature yesterday: 53 °F

Past Weeks' High & Low Weather Summary

 TemperatureHumidityPressure
High77 °F (Oct 14, 3:30 PM)100% (Oct 8, 5:00 AM)30.39 "Hg (Oct 8, 5:00 AM)
Low34 °F (Oct 20, 5:30 AM)19% (Oct 6, 3:00 PM)29.80 "Hg (Oct 17, 7:30 PM)
Average57 °F73%30.09 "Hg
* Reported Oct 6 2:00 AM — Oct 21 2:00 AM, Sibiu, Weather by CustomWeather, © 2014

Note: Actual official high and low records may vary slightly from our data, if they occured in-between our weather recording intervals... More about our weather records

Advertising

Sibiu weather history for previous 24 hours

 ConditionsComfort  
Time TempWeatherWind HumidityBarometerVisibility
2:00 AM
Oct 21
48 °FClear.No wind94%30.01 "Hg10 mi
1:00 AM52 °FClear.2 mph88%30.01 "Hg10 mi
12:00 AM52 °FClear.2 mph94%30.04 "Hg10 mi
11:00 PM
Oct 20
52 °FClear.5 mph82%30.07 "Hg10 mi
10:00 PM55 °FClear.5 mph77%30.07 "Hg10 mi
9:00 PM61 °FClear.14 mph68%30.04 "Hg10 mi
8:30 PM55 °FClear.No wind77%30.04 "Hg10 mi
8:00 PM57 °FClear.2 mph72%30.04 "Hg10 mi
7:30 PM61 °FClear.7 mph63%30.04 "Hg10 mi
7:00 PM59 °FSunny.2 mph59%30.04 "Hg10 mi
6:30 PM61 °FSunny.No wind52%30.04 "Hg10 mi
6:00 PM61 °FSunny.2 mph52%30.04 "Hg10 mi
5:30 PM63 °FSunny.5 mph49%30.04 "Hg10 mi
5:00 PM66 °FSunny.7 mph43%30.04 "Hg10 mi
4:00 PM68 °FSunny.2 mph38%30.07 "Hg10 mi
3:30 PM66 °FSunny.2 mph37%30.07 "Hg10 mi
3:00 PM66 °FPassing clouds.5 mph37%30.09 "HgN/A
2:30 PM66 °FSunny.2 mph37%30.09 "Hg10 mi
2:00 PM63 °FSunny.2 mph42%30.09 "Hg10 mi
1:30 PM63 °FSunny.2 mph39%30.09 "Hg10 mi
1:00 PM63 °FSunny.2 mph42%30.12 "Hg10 mi
12:30 PM61 °FSunny.2 mph48%30.15 "Hg10 mi
12:00 PM57 °FPassing clouds.5 mph59%30.15 "HgN/A
11:30 AM54 °FSunny.5 mph67%30.15 "Hg10 mi
11:00 AM50 °FSunny.5 mph76%30.15 "Hg10 mi
10:30 AM48 °FPassing clouds.5 mph76%30.18 "HgN/A
10:00 AM45 °FSunny.2 mph87%30.18 "Hg10 mi
9:00 AM39 °FFog.No wind100%30.18 "Hg4 mi
8:30 AM36 °FLight fog.2 mph100%30.18 "Hg4 mi
8:00 AM37 °FLight fog.2 mph93%30.18 "Hg4 mi
6:00 AM36 °FFog.No wind100%30.21 "Hg5 mi
5:30 AM34 °FClear.No wind100%30.21 "Hg10 mi
5:00 AM39 °FClear.2 mph93%30.21 "Hg10 mi
4:00 AM37 °FClear.No wind100%30.21 "Hg10 mi
3:00 AM39 °FClear.No wind100%30.24 "Hg10 mi
Weather by CustomWeather, © 2014

See weather overviewHow to use our weather pages